www.pogodaiklimat.ru

Погода и климат >> Архив погоды >> Буркина-Фасо >> Boromo


ПОГОДА в Boromo

  • Прогноз погоды в Boromo
  • Монитор погоды в Boromo
  • Климат города

АРХИВ ПОГОДЫ в Boromo

Время (UTC), дата Ветер
(напр.,м/с)
 
Видим.   Явления Облачность Т
(С)
Тd
(С)
f
(%)
Тe
(С)
Тes
(С)
Комфортность P
(гПа)
Po
(гПа)
Тmin
(С)
Tmax
(С)
R
(мм)
R24
(мм)
S
(см)
00 20.07 штиль 0 10 км 9/0
[Ac As Ci sp]
+28.2 +24.4 80 +40 +40 очень
душно
1013.2 983.0
03 20.07 ЮЗ 1 10 км зарница 9/1 1200 м
[Cb cap Ac As Ci sp]
+27.2 +24.5 85 +38 +38 очень
душно
1012.3 982.1
06 20.07 СВ 3 10 км гроза без осадков {дождь} 9/1 1200 м
[Cb cap Ac As Ci sp]
+25.7 +23.8 89 +35 +35 очень
душно
1012.9 982.8 +25.4
09 20.07 штиль 0 15 км в посл. час гроза {дождь} 9/1 600 м
[Cb cap Ac As Ci sp]
+25.2 +24.2 94 +35 +42 очень
душно
1014.6 984.2
12 20.07 СЗ 2 15 км {гроза, дождь} 9/6 600 м
[Cu Sc Ac As Ci sp]
+29.7 +23.8 71 +41 +46 опасность
перегрева
1013.1 982.9 30
15 20.07 штиль 0 15 км 9/5 600 м
[Cu Sc Ci sp]
+31.4 +24.6 67 +44 +51 опасность
перегрева
1010.4 980.3
18 20.07 штиль 0 10 км гроза, ливневой дождь 9/1 600 м
[Cb cap Ac As Ci sp]
+30.7 +24.9 71 +44 +44 опасность
перегрева
1010.3 980.1 +31.7 31
00 21.07 штиль 0 10 км {гроза, дождь} 9/0
[Ci sp]
+25.6 +23.4 88 +35 +35 очень
душно
1011.7 981.4
03 21.07 штиль 0 10 км 9/0
[Ci sp]
+24.8 +23.7 94 +34 +34 очень
душно
1010.1 979.9
06 21.07 штиль 0 10 км 9/0
[Ac As Ci sp]
+24.2 +23.3 95 +32 +32 очень
душно
1011.1 980.8 +23.9 31
09 21.07 ЮЗ 2 15 км 9/1 600 м
[Sc Ac trans Ci sp]
+28.0 +23.7 77 +38 +43 очень
душно
1012.5 982.2
12 21.07 ЮЗ 2 15 км 9/5 600 м
[Cu Sc Ci sp]
+32.0 +23.7 62 +43 +52 опасность
перегрева
1012.2 982.0
15 21.07 З 2 15 км 9/4 600 м
[Cu Sc Ci sp]
+32.8 +22.4 54 +42 +48 опасность
перегрева
1009.7 979.6
18 21.07 штиль 0 15 км 9/1 600 м
[Cu Sc Ac cuf Ci sp]
+32.4 +21.9 54 +41 +41 опасность
перегрева
1009.5 979.3 +33.3
00 22.07 штиль 0 10 км 9/0
[Ci sp]
+26.8 +24.3 86 +37 +37 очень
душно
1011.1 981.0
03 22.07 штиль 0 10 км 9/0
[Ac trans Ci sp]
+26.2 +23.9 87 +36 +36 очень
душно
1010.3 980.2
06 22.07 штиль 0 10 км 9/0
[Ac cast Ci sp]
+25.4 +23.7 90 +35 +35 очень
душно
1011.4 981.3 +25.1
09 22.07 З 2 15 км 9/1 600 м
[Sc Cs]
+27.8 +23.8 79 +38 +46 очень
душно
1013.0 982.7
12 22.07 СВ 1 15 км 9/5 600 м
[Cu Sc Ci sp]
+30.6 +23.4 65 +41 +52 опасность
перегрева
1013.3 983.0
15 22.07 СВ 4 10 км слабый дождь 10/3 600 м
[Cb cap Ac As]
+30.4 +22.8 64 +40 +42 очень
душно
1011.1 980.9
18 22.07 штиль 0 15 км {гроза, дождь} 9/3 600 м
[Sc Ac As Ci sp]
+24.0 +21.0 83 +30 +30 очень
душно
1011.6 981.0 +32.0 3
00 23.07 ЮЗ 2 10 км 9/0
[Ac As Ci sp]
+23.3 +22.0 92 +32 +32 очень
душно
1012.6 982.3
06 23.07 штиль 0 10 км 9/4 400 м
[Sc Ac As Ci sp]
+22.9 +21.7 93 +31 +31 очень
душно
1013.3 982.5 +22.4 3
09 23.07 Ю 1 15 км 9/1 400 м
[Sc Ac As Ci sp]
+25.0 +22.1 84 +32 +38 очень
душно
1014.7 984.0
12 23.07 ЮЗ 1 15 км 8/4 600 м
[Sc Ac trans Ci sp]
+29.2 +22.6 68 +39 +49 очень
душно
1013.8 983.4
15 23.07 СЗ 2 15 км 9/5 600 м
[Cu Sc Ac trans Ci sp]
+31.7 +21.2 54 +39 +43 очень
душно
1011.8 981.5
18 23.07 ЮЗ 2 15 км 9/1 600 м
[Cu Sc Ci sp]
+30.2 +22.1 62 +39 +39 очень
душно
1011.6 981.2 +31.7
03 24.07 штиль 0 10 км 9/0
[Ci sp]
+24.7 +23.0 90 +33 +33 очень
душно
1011.5 981.2
06 24.07 штиль 0 10 км 9/0
[Ac As Ci sp]
+24.2 +23.0 93 +32 +32 очень
душно
1012.7 982.3 +23.7
09 24.07 ЮЗ 2 15 км 9/1 400 м
[St Ac trans Ci sp]
+26.6 +23.5 83 +36 +41 очень
душно
1014.2 983.8
12 24.07 ЮЗ 3 15 км 9/4 600 м
[Sc Ac trans Ci sp]
+30.1 +22.3 63 +39 +45 очень
душно
1013.4 983.1
18 24.07 штиль 0 15 км 9/1 600 м
[Cu Sc Ci sp]
+31.1 +22.3 60 +40 +41 очень
душно
1010.5 980.3 +32.3
00 25.07 штиль 0 10 км 9/0
[Ci sp]
+27.0 +23.4 81 +37 +37 очень
душно
1012.6 982.4
03 25.07 ЮЗ 1 10 км 9/0
[Ac As Ci sp]
+26.1 +23.8 87 +36 +36 очень
душно
1011.5 981.4
06 25.07 штиль 0 10 км 9/0
[Ac As Ci sp]
+25.4 +23.5 89 +34 +34 очень
душно
1011.2 981.0 +25.1
09 25.07 ЮЗ 2 15 км 9/1 600 м
[Sc Ac cast Ci sp]
+28.6 +23.3 73 +39 +44 очень
душно
1011.9 981.7
12 25.07 ЮЗ 2 15 км 9/4 600 м
[Cu Sc Ac trans Ci sp]
+32.0 +22.7 58 +42 +49 опасность
перегрева
1011.3 981.2
15 25.07 ЮЗ 1 15 км гроза без осадков 9/3 600 м
[Cb cap Ac cast Ci sp]
+33.4 +22.1 52 +42 +48 опасность
перегрева
1009.3 979.3
00 26.07 Ю 1 10 км зарница 9/1 1200 м
[Cb cap Ac As Ci sp]
+27.3 +23.3 79 +37 +37 очень
душно
1011.0 980.9
03 26.07 ЮВ 2 10 км гроза, ливневой дождь 10/3 600 м
[Cb cap Ac As]
+21.7 +21.1 96 +28 +28 душно 1011.1 980.9
09 26.07 З 2 10 км слабый дождь 10/1 600 м
[Sc Ac As]
+22.6 +21.7 95 +30 +33 очень
душно
1011.5 981.0
12 26.07 штиль 0 15 км {дождь} 9/3 600 м
[Sc Ac As Ci sp]
+25.8 +21.7 78 +33 +45 очень
душно
1011.5 981.1 0.7
15 26.07 штиль 0 15 км 9/1 600 м
[Sc Ac cast Ci sp]
+28.4 +23.0 73 +38 +47 очень
душно
1010.3 979.8
18 26.07 штиль 0 15 км 9/1 600 м
[Sc Ac cast Ci sp]
+28.2 +23.8 77 +39 +39 очень
душно
1009.7 979.2 +29.0 0.7

 

Местоположение метеостанции Boromo (Буркина-Фасо): широта 11.75 долгота -2.93 высота над уровнем моря 271 м.

В архиве по умолчанию представлена погода в Boromo за последнюю неделю. Архивные данные за месяц целиком и за предыдущие месяцы, начиная с января 2011 года, Вы можете получить, выбрав интересующий диапазон дат из раскрывающегося списка и нажав кнопку "Ввод!".

Внимание! Время в таблицах - всемирное. Для получения местного времени необходимо прибавить поправку, которая в Boromo равна 0 ч.

Смотрите также архив погоды в соседних городах и на ближайших метеорологических станциях:

Погода в Dedougou (Буркина-Фасо) (100 км)
Погода в Gaoua (Буркина-Фасо) (160 км)
Погода в Bobo-Dioulasso (Буркина-Фасо) (165 км)
Погода в Ouagadougou (Буркина-Фасо) (167 км)
Погода в Wa (Гана) (195 км)
Погода в Po (Буркина-Фасо) (205 км)
Погода в Ouahigouya (Буркина-Фасо) (210 км)
Погода в Navrongo (Гана) (221 км)
Погода в San (Мали) (271 км)
Погода в Koutiala (Мали) (285 км)

Пояснения к столбцам:

Ветер - указаны скорость ветра в м/с - средняя за 10 мин, порывы в срок и между сроками (в фигурных скобках) и направление, откуда дует ветер: С - северный, СВ - северо-восточный, В - восточный, ЮВ - юго-восточный, Ю - южный, ЮЗ - юго-западный, З - западный, СЗ - северо-западный.
Видимость - горизонтальная дальность видимости в метрах или километрах. При видимости от 1 до 10 км при отсутствии осадков обычно наблюдается дымка, при ухудшении видимости до 1 км и менее - туман. В сухую погоду видимость может ухудшаться дымом, пылью или мглою.
Явления - указаны атмосферные явления, наблюдавшиеся в срок или в последний час перед сроком; фигурными скобками обозначены явления, наблюдавшиеся между сроками (за 1-3 часа до срока); квадратными скобками обозначены град или гололедные отложения с указанием их диаметра в мм.
Облачность - указаны через наклонную черту общая и нижняя облачность в баллах и высота нижней границы облаков в метрах; квадратными скобками обозначены формы облаков: Ci - перистые, Cs - перисто-слоистые, Cc - перисто-кучевые, Ac - высококучевые, As - высокослоистые, Sc - слоисто-кучевые, Ns - слоисто-дождевые, Cu - кучевые, Cb - кучево-дождевые. Подробнее классификацию облаков см. в Атласе облаков (PDF).
T - Температура воздуха - температура, измеренная на высоте 2 м над землей.
Td - Температура точки росы - температура, при понижении до которой содержащийся в воздухе водяной пар достигнет насыщения.
f - Относительная влажность воздуха - влажноcть воздуха, измеренная на высоте 2 м над землей.
Te - Эффективная температура - температура, которую ощущает одетый по сезону человек в тени. Характеристика душности погоды. При расчете учитывается влияние влажности воздуха и скорости ветра на теплоощущения человека.
Tes - Эффективная температура на солнце - температура, которую ощущает человек, с поправкой на солнечный нагрев. Характеристика знойности погоды. Зависит от высоты солнца над горизонтом, облачности и скорости ветра. Ночью, в пасмурную погоду, а также при ветре 12 м/с и более поправка равна нулю.
P - Атмосферное давление - приведенное к уровню моря атмосферное давление.
Po - Атмосферное давление - измеренное на уровне метеостанции атмосферное давление.
Tmin - Минимальная температура - минимум температуры воздуха на высоте 2 м над землей.
Tmax - Максимальная температура - максимум температуры воздуха на высоте 2 м над землей.
R - Количество осадков - Количество выпавших осадков за период времени, мм. При наведении курсора мыши на число - период времени, за который выпало указанное количество осадков.
R24 - Количество осадков - Количество выпавших осадков за 24 часа, мм.
S - Снежный покров - Высота снежного покрова, см. При наведении курсора мыши на число - состояние снежного покрова и степень покрытия местности в баллах.